SCP
0 0 0 0 0 0 0 0 0 0 0 0 0 0 0 0 0 0 0 0 0 0 0 0 0 0 0 0 0 0 0 0 0 0 0 0 0 0 0 0 0 0 0
0 0 0 0 0 0 0 0 0 0 0 0 0 0 0 0 0 0 0 0 0 0 0 0 0 0 0 0 0 0 0 0 0 0 0 0 0 0 0 0 0 0 0
0 0 0 0 0 0 0 0 0 0 0 0 0 0 0 0 0 0 0 0 0 0 0 0 0 0 0 0 0 0 0 0 0 0 0 0 0 0 0 0 0 0 0
0 0 0 0 0 0 0 0 0 0 0 0 0 0 0 0 0 0 0 0 0 0 0 0 0 0 0 0 0 0 0 0 0 0 0 0 -0 -0 -0 -0 -0 0 0
0 0 0 0 0 0 0 0 0 0 0 0 0 0 0 0 0 0 0 0 0 0 0 0 0 0 0 0 0 0 0 0 0 0 0 0 -0 -0 0 -0 0 -0 0
0 0 0 0 0 0 0 0 0 0 0 0 0 0 0 0 0 0 0 0 0 0 0 0 0 0 0 0 0 0 0 0 0 0 0 0 0 0 0 0 0 0 -0
0 0 0 0 0 0 0 0 0 0 0 0 0 0 0 0 0 0 0 0 0 0 0 0 0 0 0 0 0 0 0 0 0 0 0 0 0 0 0 0 0 0 0
0 0 0 0 0 0 0 0 0 0 0 0 0 0 0 0 0 0 0 0 0 0 0 0 0 0 0 0 0 0 0 0 0 0 0 0 0 0 0 0 0 0 0
0 0 0 0 0 0 0 0 0 0 0 0 0 0 0 0 0 0 0 0 0 0 0 0 0 0 0 0 0 0 0 0 0 0 0 0 0 0 0 0 -0 -0 -0
0 0 0 0 0 0 0 0 0 0 0 0 0 0 0 0 0 0 0 0 0 0 0 0 0 0 0 0 0 -0 -0 -0 -0 -0 -0 0 -0 -0 -0 -0 -0 -0 -0
0 0 0 0 0 0 0 0 0 0 0 0 0 0 0 0 0 0 0 0 0 0 0 0 0 0 0 0 0 -0 0 0 -0 -0 -0 -0 -0 -0 -0 -0 -0 -0 -0
0 0 0 0 0 0 0 0 0 0 0 0 0 0 0 0 0 0 0 0 0 0 0 -0 -0 0 0 0 0 0 0 0 -0 -0 -0 -0 -0 -0 -0 -0 -0 -0 -0
0 0 0 0 0 0 0 0 0 0 0 0 0 0 0 0 0 0 0 0 0 0 -0 0 0 0 0 0 0 0 0 -0 -0 -0 -0 -0 -0 -0 -0 -0 -0 -0 0
0 0 0 0 0 0 0 0 0 0 0 0 0 0 0 0 0 0 0 0 0 -0 0 0 0 0 0 0 0 0 0 0 -0 -0 -0 -0 -0 -0 -0 -0 -0 -0 0
0 0 0 0 0 0 0 -0 -0 -0 0 -0 -0 0 0 0 0 0 0 0 0 -0 0 -0 -0 -0 -0 -0 -0 -0 -0 -0 -0 -0 -0 -0 -0 0 0 -0 0 0 0
0 0 0 0 0 0 0 0 0 0 0 0 0 0 0 0 0 0 0 0 -0 -0 -0 -0 -0 -0 -0 -0 -0 -0 0 0 0 0 0 0 0 0 0 0 0 0 0
0 0 0 0 0 0 0 0 0 0 0 0 0 0 0 0 0 0 0 0 -0 0 -0 -0 -0 -0 -0 0 0 0 0 0 0 0 0 0 0 0 0 0 0 0 0
0 0 0 0 0 0 0 0 0 0 0 0 0 0 0 -0 -0 0 0 0 -0 -0 -0 -0 -0 0 0 0 0 0 0 0 0 0 0 0 0 0 0 0 0 0 0
0 0 0 0 -0 -0 0 0 0 0 0 0 0 0 0 -0 0 0 0 -0 0 0 0 0 0 0 0 0 0 0 0 0 0 0 0 0 0 0 0 0 0 0 0
0 0 0 0 0 0 0 0 0 0 0 0 0 0 0 0 0 0 0 0 0 0 0 0 0 0 0 0 0 0 0 0 0 0 0 0 0 0 0 0 0 0 0
0 0 0 0 0 0 0 0 0 0 0 0 0 0 0 0 0 0 0 0 0 0 0 0 0 0 0 0 0 0 0 0 0 0 0 0 0 0 0 0 0 0 0
0 0 0 0 0 0 0 0 0 0 0 0 0 0 0 0 0 0 0 0 0 0 0 0 0 0 0 0 0 0 0 0 0 0 0 0 0 0 0 0 0 0 0
0 0 0 0 0 0 0 0 0 0 0 0 0 0 0 0 0 0 0 0 0 0 0 0 0 0 0 0 0 0 0 0 0 0 0 0 0 0 0 0 0 0 0
0 0 0 0 0 0 0 0 0 0 0 0 0 0 0 0 0 0 0 0 0 0 0 0 0 0 0 0 0 0 0 0 0 0 -0 0 0 0 0 0 0 0 0
0 0 0 0 0 0 0 0 0 0 0 0 0 0 0 0 0 0 0 0 0 0 0 0 0 0 0 0 0 0 0 -0 -0 -0 0 0 0 0 0 0 0 0 0
0 0 0 0 0 0 0 0 0 0 0 0 0 0 0 0 0 0 0 0 0 0 0 0 0 0 0 0 0 -0 -0 -0 -0 0 0 0 0 0 0 0 0 0 0
Wind_Speed_500mb
46 35 28 29 35 39 44 49 45 41 48 47 46 47 53 49 38 43 42 34 39 27 24 21 22 23 24 26 32 45 53 58 59 70 66 59 67 74 79 82 84 89 93
16 17 11 12 13 21 13 8 11 22 24 24 25 22 22 23 26 22 18 20 23 29 34 35 35 43 52 58 57 52 47 42 50 71 75 78 83 83 81 81 82 83 88
30 24 21 20 25 30 32 33 30 31 27 25 21 21 18 15 14 12 14 13 12 4 6 7 12 17 23 28 33 36 39 44 49 61 74 74 76 75 79 81 83 88 91
43 42 48 47 50 49 46 46 42 41 40 40 39 38 36 30 31 25 21 17 11 9 13 15 17 20 22 26 30 35 39 45 51 59 68 72 73 73 72 78 91 93 104
71 68 69 63 58 57 58 57 53 52 50 47 44 42 39 37 36 28 24 23 21 19 19 19 21 23 28 33 40 44 46 47 49 53 59 65 64 67 70 76 85 95 97
83 82 75 69 67 64 60 58 53 50 47 44 45 42 43 47 39 34 30 29 28 29 30 30 28 29 33 37 41 43 44 45 47 50 58 68 76 79 85 86 84 90 100
80 75 70 65 64 61 57 53 53 51 49 53 54 51 50 48 44 41 37 35 33 34 35 36 41 44 45 47 48 48 47 47 49 55 62 66 73 77 84 92 92 93 101
73 68 62 58 61 57 54 54 50 49 51 52 53 53 51 52 45 42 40 40 40 42 43 44 45 47 53 58 60 59 59 56 57 61 64 66 67 71 73 76 84 95 104
71 67 62 58 59 56 56 54 54 50 51 52 50 48 48 49 46 45 41 41 43 46 49 50 52 56 62 67 69 69 68 66 65 65 67 69 72 74 75 83 88 95 112
69 65 60 57 56 56 55 54 52 50 51 49 48 49 46 45 41 40 42 42 45 49 52 56 59 64 67 71 74 72 74 76 79 79 77 77 78 78 76 72 76 83 88
60 57 55 55 55 53 51 50 48 47 46 46 45 45 45 45 47 47 49 53 57 59 62 67 69 72 72 71 68 64 61 70 76 78 81 81 80 79 76 71 67 66 75
51 51 54 55 54 51 49 50 48 46 45 45 43 43 43 44 44 47 51 57 62 66 70 73 73 72 71 69 67 64 64 70 75 79 82 83 83 82 79 78 75 65 60
53 57 55 52 50 48 47 46 45 44 46 47 47 47 48 51 53 55 58 63 68 71 70 71 71 72 71 70 67 66 69 73 76 80 83 85 84 84 86 89 86 77 71
52 53 51 49 48 47 46 47 46 47 48 50 52 54 54 56 61 66 69 72 75 76 77 76 74 70 67 66 68 67 69 70 72 74 76 79 80 82 85 86 87 84 83
48 48 48 48 49 49 51 52 51 51 51 52 56 58 60 60 58 55 61 69 79 69 80 80 80 79 79 78 75 73 70 69 70 68 72 78 81 82 85 86 85 83 77
47 49 49 47 47 46 45 43 45 46 46 47 49 51 53 55 52 56 61 64 83 79 86 87 85 82 78 77 77 77 73 72 70 69 73 77 81 82 86 89 86 81 79
41 42 41 41 41 41 40 39 37 38 43 49 54 59 65 68 65 69 78 87 90 90 88 85 82 80 78 77 76 75 75 71 69 68 74 78 79 80 85 89 87 84 86
34 36 38 41 43 41 39 40 44 49 54 56 58 65 72 77 81 86 92 96 98 94 90 87 84 81 78 76 74 73 72 68 64 67 74 77 78 80 85 83 82 84 88
28 32 37 39 41 43 44 47 52 57 62 67 73 76 82 86 88 91 94 93 92 88 86 83 77 73 69 66 66 65 64 61 60 70 76 77 76 78 79 77 81 84 87
26 32 37 41 45 49 53 56 59 63 67 72 78 83 90 96 98 98 91 85 83 82 82 80 75 69 64 63 65 64 61 56 62 72 73 75 73 73 72 75 80 89 91
24 29 34 41 47 52 56 59 62 66 71 75 77 82 86 89 92 88 84 80 78 79 78 74 68 60 56 57 57 57 53 54 64 70 74 70 68 70 69 73 78 86 93
20 28 35 41 47 52 58 63 66 70 74 78 83 86 88 87 83 79 78 79 79 75 69 64 58 54 53 54 54 52 48 55 66 70 66 64 66 67 71 76 79 84 93
22 29 36 41 49 56 61 65 70 74 78 81 86 90 89 84 78 76 77 78 77 70 58 50 49 50 51 50 45 43 46 54 65 62 60 64 65 69 74 78 80 82 92
23 31 38 46 54 60 66 72 75 77 80 86 88 87 84 79 75 75 77 75 69 56 47 46 48 52 52 45 39 33 43 47 58 59 56 58 64 69 74 77 76 76 88
27 34 42 51 58 66 72 75 77 78 81 85 85 82 78 73 72 72 70 64 54 45 45 48 53 52 46 41 33 31 42 42 47 53 51 53 59 68 72 77 78 77 85
31 38 45 52 59 66 72 76 77 79 84 87 83 77 72 68 68 66 61 52 40 40 45 52 56 50 42 34 29 33 41 37 51 49 47 51 60 66 74 78 82 78 85
Wind_Direction_500mb
227 237 210 228 236 243 243 256 259 266 275 283 284 278 272 269 272 258 255 249 246 260 263 265 270 272 281 269 267 268 271 269 277 283 283 283 285 283 282 285 286 284 281
149 197 221 225 204 230 234 260 326 307 339 340 327 311 299 283 260 293 291 307 312 305 295 285 274 270 264 266 268 272 275 287 293 296 297 298 299 301 301 301 298 294 291
107 110 99 54 56 59 59 53 51 51 53 57 56 55 57 46 49 46 47 52 48 332 272 290 293 296 296 300 306 306 303 298 295 298 300 303 306 311 311 307 306 303 300
96 93 89 83 83 82 81 77 76 74 75 73 72 71 73 72 66 60 58 59 53 15 357 346 339 336 332 327 325 325 322 320 318 316 313 316 321 323 321 319 314 312 310
92 89 87 88 87 86 86 84 85 83 81 82 82 81 79 74 65 56 53 56 52 41 32 18 2 349 338 338 336 332 329 325 325 322 320 320 324 326 323 318 314 313 311
91 90 91 90 89 88 88 85 83 82 80 76 70 68 69 68 60 53 42 34 26 17 16 14 10 1 358 358 355 352 348 347 340 328 325 324 320 317 313 312 311 309 311
91 91 91 92 90 88 87 85 81 78 74 68 65 62 62 62 59 56 49 47 43 40 32 25 18 12 6 2 357 351 346 342 334 329 326 325 322 322 318 318 316 311 307
88 87 85 83 83 82 79 76 74 70 66 65 63 63 64 65 61 56 50 46 41 37 30 23 14 6 0 353 349 346 342 339 334 333 330 327 325 323 323 319 315 312 306
82 82 82 81 82 82 78 75 71 68 66 63 62 61 60 63 57 52 47 42 36 30 22 14 6 360 355 348 345 342 338 334 332 331 328 324 324 324 326 323 325 323 318
84 84 82 80 77 74 73 71 69 65 64 63 60 57 53 53 48 41 33 29 23 16 10 4 359 353 347 342 339 338 335 332 334 331 328 329 331 332 334 334 330 325 322
83 82 80 77 74 74 73 71 68 67 66 63 58 54 47 40 35 26 19 15 12 5 360 356 352 348 343 339 336 337 336 331 331 331 332 334 335 336 337 335 331 324 316
82 81 82 81 80 78 74 72 67 61 56 52 46 42 37 31 26 20 14 10 3 360 355 350 346 342 338 336 335 337 336 333 334 337 339 341 341 340 340 339 335 328 314
86 82 79 78 77 74 67 62 57 50 44 39 34 30 26 22 19 13 9 4 358 353 352 346 341 337 333 332 334 336 337 339 340 341 343 343 343 341 341 340 337 335 324
83 81 77 72 66 60 56 52 45 42 38 34 30 26 20 16 11 5 359 355 353 347 347 342 339 333 331 334 337 342 345 345 345 344 342 341 340 341 343 345 340 339 332
83 80 74 67 60 52 45 42 39 38 33 28 25 19 12 8 3 356 354 350 348 345 340 340 338 341 343 344 345 347 349 350 350 348 344 343 343 343 343 346 344 338 326
75 70 63 56 50 46 42 40 38 34 28 23 17 9 5 359 354 352 351 346 346 342 341 340 344 344 344 345 346 347 349 349 349 346 346 345 344 343 343 344 344 339 330
70 66 58 50 43 38 34 33 33 31 21 13 8 2 359 357 354 350 347 343 341 338 338 340 342 343 343 343 344 344 345 346 346 348 347 346 345 344 345 344 344 340 336
69 61 48 40 36 32 29 26 19 12 9 6 3 357 354 354 353 347 342 338 337 339 339 339 339 339 338 338 339 340 341 345 346 347 347 347 348 348 344 343 343 340 338
60 52 44 37 32 28 23 16 11 6 2 357 353 353 351 348 346 341 339 338 337 336 336 335 337 337 336 336 337 338 342 346 347 347 347 348 350 349 344 345 344 344 342
52 43 35 28 22 18 12 7 2 360 356 353 352 349 345 344 342 340 339 339 339 338 337 336 339 339 338 338 339 341 344 348 349 348 348 349 352 350 346 347 348 346 345
40 30 22 16 12 8 4 1 357 354 352 350 348 346 343 341 339 340 341 341 341 339 336 337 340 341 340 340 340 342 346 350 351 350 350 352 354 348 347 345 345 346 346
22 12 7 4 2 0 359 355 352 350 348 346 344 343 342 341 343 344 343 342 341 340 340 339 342 344 344 345 344 344 349 353 352 348 352 355 353 347 345 344 344 345 346
1 357 354 352 353 353 351 350 349 347 345 344 343 342 343 345 346 345 344 343 342 343 344 344 345 347 349 348 346 345 351 352 352 353 354 353 349 347 347 345 345 345 347
334 334 339 346 347 346 346 347 346 343 343 343 342 343 344 345 346 346 346 346 347 351 355 356 354 350 347 348 349 354 354 351 353 358 355 350 349 351 351 350 348 348 349
313 327 337 340 342 343 343 342 341 341 342 342 342 343 344 345 346 348 349 351 357 5 8 1 354 353 353 352 353 355 352 348 354 355 349 352 353 355 354 354 353 351 352
312 325 332 334 337 338 339 339 339 340 342 341 342 343 343 345 347 349 351 355 6 13 9 6 1 357 353 354 358 354 2 6 2 347 349 349 351 355 356 356 356 353 354
Wind_Speed_850mb
46 35 28 29 35 39 44 49 45 41 48 47 46 47 53 49 38 43 42 34 39 27 24 21 22 23 24 26 32 45 53 58 59 70 66 59 67 74 79 82 84 89 93
16 17 11 12 13 21 13 8 11 22 24 24 25 22 22 23 26 22 18 20 23 29 34 35 35 43 52 58 57 52 47 42 50 71 75 78 83 83 81 81 82 83 88
30 24 21 20 25 30 32 33 30 31 27 25 21 21 18 15 14 12 14 13 12 4 6 7 12 17 23 28 33 36 39 44 49 61 74 74 76 75 79 81 83 88 91
43 42 48 47 50 49 46 46 42 41 40 40 39 38 36 30 31 25 21 17 11 9 13 15 17 20 22 26 30 35 39 45 51 59 68 72 73 73 72 78 91 93 104
71 68 69 63 58 57 58 57 53 52 50 47 44 42 39 37 36 28 24 23 21 19 19 19 21 23 28 33 40 44 46 47 49 53 59 65 64 67 70 76 85 95 97
83 82 75 69 67 64 60 58 53 50 47 44 45 42 43 47 39 34 30 29 28 29 30 30 28 29 33 37 41 43 44 45 47 50 58 68 76 79 85 86 84 90 100
80 75 70 65 64 61 57 53 53 51 49 53 54 51 50 48 44 41 37 35 33 34 35 36 41 44 45 47 48 48 47 47 49 55 62 66 73 77 84 92 92 93 101
73 68 62 58 61 57 54 54 50 49 51 52 53 53 51 52 45 42 40 40 40 42 43 44 45 47 53 58 60 59 59 56 57 61 64 66 67 71 73 76 84 95 104
71 67 62 58 59 56 56 54 54 50 51 52 50 48 48 49 46 45 41 41 43 46 49 50 52 56 62 67 69 69 68 66 65 65 67 69 72 74 75 83 88 95 112
69 65 60 57 56 56 55 54 52 50 51 49 48 49 46 45 41 40 42 42 45 49 52 56 59 64 67 71 74 72 74 76 79 79 77 77 78 78 76 72 76 83 88
60 57 55 55 55 53 51 50 48 47 46 46 45 45 45 45 47 47 49 53 57 59 62 67 69 72 72 71 68 64 61 70 76 78 81 81 80 79 76 71 67 66 75
51 51 54 55 54 51 49 50 48 46 45 45 43 43 43 44 44 47 51 57 62 66 70 73 73 72 71 69 67 64 64 70 75 79 82 83 83 82 79 78 75 65 60
53 57 55 52 50 48 47 46 45 44 46 47 47 47 48 51 53 55 58 63 68 71 70 71 71 72 71 70 67 66 69 73 76 80 83 85 84 84 86 89 86 77 71
52 53 51 49 48 47 46 47 46 47 48 50 52 54 54 56 61 66 69 72 75 76 77 76 74 70 67 66 68 67 69 70 72 74 76 79 80 82 85 86 87 84 83
48 48 48 48 49 49 51 52 51 51 51 52 56 58 60 60 58 55 61 69 79 69 80 80 80 79 79 78 75 73 70 69 70 68 72 78 81 82 85 86 85 83 77
47 49 49 47 47 46 45 43 45 46 46 47 49 51 53 55 52 56 61 64 83 79 86 87 85 82 78 77 77 77 73 72 70 69 73 77 81 82 86 89 86 81 79
41 42 41 41 41 41 40 39 37 38 43 49 54 59 65 68 65 69 78 87 90 90 88 85 82 80 78 77 76 75 75 71 69 68 74 78 79 80 85 89 87 84 86
34 36 38 41 43 41 39 40 44 49 54 56 58 65 72 77 81 86 92 96 98 94 90 87 84 81 78 76 74 73 72 68 64 67 74 77 78 80 85 83 82 84 88
28 32 37 39 41 43 44 47 52 57 62 67 73 76 82 86 88 91 94 93 92 88 86 83 77 73 69 66 66 65 64 61 60 70 76 77 76 78 79 77 81 84 87
26 32 37 41 45 49 53 56 59 63 67 72 78 83 90 96 98 98 91 85 83 82 82 80 75 69 64 63 65 64 61 56 62 72 73 75 73 73 72 75 80 89 91
24 29 34 41 47 52 56 59 62 66 71 75 77 82 86 89 92 88 84 80 78 79 78 74 68 60 56 57 57 57 53 54 64 70 74 70 68 70 69 73 78 86 93
20 28 35 41 47 52 58 63 66 70 74 78 83 86 88 87 83 79 78 79 79 75 69 64 58 54 53 54 54 52 48 55 66 70 66 64 66 67 71 76 79 84 93
22 29 36 41 49 56 61 65 70 74 78 81 86 90 89 84 78 76 77 78 77 70 58 50 49 50 51 50 45 43 46 54 65 62 60 64 65 69 74 78 80 82 92
23 31 38 46 54 60 66 72 75 77 80 86 88 87 84 79 75 75 77 75 69 56 47 46 48 52 52 45 39 33 43 47 58 59 56 58 64 69 74 77 76 76 88
27 34 42 51 58 66 72 75 77 78 81 85 85 82 78 73 72 72 70 64 54 45 45 48 53 52 46 41 33 31 42 42 47 53 51 53 59 68 72 77 78 77 85
31 38 45 52 59 66 72 76 77 79 84 87 83 77 72 68 68 66 61 52 40 40 45 52 56 50 42 34 29 33 41 37 51 49 47 51 60 66 74 78 82 78 85
Wind_Direction_850mb
227 237 210 228 236 243 243 256 259 266 275 283 284 278 272 269 272 258 255 249 246 260 263 265 270 272 281 269 267 268 271 269 277 283 283 283 285 283 282 285 286 284 281
149 197 221 225 204 230 234 260 326 307 339 340 327 311 299 283 260 293 291 307 312 305 295 285 274 270 264 266 268 272 275 287 293 296 297 298 299 301 301 301 298 294 291
107 110 99 54 56 59 59 53 51 51 53 57 56 55 57 46 49 46 47 52 48 332 272 290 293 296 296 300 306 306 303 298 295 298 300 303 306 311 311 307 306 303 300
96 93 89 83 83 82 81 77 76 74 75 73 72 71 73 72 66 60 58 59 53 15 357 346 339 336 332 327 325 325 322 320 318 316 313 316 321 323 321 319 314 312 310
92 89 87 88 87 86 86 84 85 83 81 82 82 81 79 74 65 56 53 56 52 41 32 18 2 349 338 338 336 332 329 325 325 322 320 320 324 326 323 318 314 313 311
91 90 91 90 89 88 88 85 83 82 80 76 70 68 69 68 60 53 42 34 26 17 16 14 10 1 358 358 355 352 348 347 340 328 325 324 320 317 313 312 311 309 311
91 91 91 92 90 88 87 85 81 78 74 68 65 62 62 62 59 56 49 47 43 40 32 25 18 12 6 2 357 351 346 342 334 329 326 325 322 322 318 318 316 311 307
88 87 85 83 83 82 79 76 74 70 66 65 63 63 64 65 61 56 50 46 41 37 30 23 14 6 0 353 349 346 342 339 334 333 330 327 325 323 323 319 315 312 306
82 82 82 81 82 82 78 75 71 68 66 63 62 61 60 63 57 52 47 42 36 30 22 14 6 360 355 348 345 342 338 334 332 331 328 324 324 324 326 323 325 323 318
84 84 82 80 77 74 73 71 69 65 64 63 60 57 53 53 48 41 33 29 23 16 10 4 359 353 347 342 339 338 335 332 334 331 328 329 331 332 334 334 330 325 322
83 82 80 77 74 74 73 71 68 67 66 63 58 54 47 40 35 26 19 15 12 5 360 356 352 348 343 339 336 337 336 331 331 331 332 334 335 336 337 335 331 324 316
82 81 82 81 80 78 74 72 67 61 56 52 46 42 37 31 26 20 14 10 3 360 355 350 346 342 338 336 335 337 336 333 334 337 339 341 341 340 340 339 335 328 314
86 82 79 78 77 74 67 62 57 50 44 39 34 30 26 22 19 13 9 4 358 353 352 346 341 337 333 332 334 336 337 339 340 341 343 343 343 341 341 340 337 335 324
83 81 77 72 66 60 56 52 45 42 38 34 30 26 20 16 11 5 359 355 353 347 347 342 339 333 331 334 337 342 345 345 345 344 342 341 340 341 343 345 340 339 332
83 80 74 67 60 52 45 42 39 38 33 28 25 19 12 8 3 356 354 350 348 345 340 340 338 341 343 344 345 347 349 350 350 348 344 343 343 343 343 346 344 338 326
75 70 63 56 50 46 42 40 38 34 28 23 17 9 5 359 354 352 351 346 346 342 341 340 344 344 344 345 346 347 349 349 349 346 346 345 344 343 343 344 344 339 330
70 66 58 50 43 38 34 33 33 31 21 13 8 2 359 357 354 350 347 343 341 338 338 340 342 343 343 343 344 344 345 346 346 348 347 346 345 344 345 344 344 340 336
69 61 48 40 36 32 29 26 19 12 9 6 3 357 354 354 353 347 342 338 337 339 339 339 339 339 338 338 339 340 341 345 346 347 347 347 348 348 344 343 343 340 338
60 52 44 37 32 28 23 16 11 6 2 357 353 353 351 348 346 341 339 338 337 336 336 335 337 337 336 336 337 338 342 346 347 347 347 348 350 349 344 345 344 344 342
52 43 35 28 22 18 12 7 2 360 356 353 352 349 345 344 342 340 339 339 339 338 337 336 339 339 338 338 339 341 344 348 349 348 348 349 352 350 346 347 348 346 345
40 30 22 16 12 8 4 1 357 354 352 350 348 346 343 341 339 340 341 341 341 339 336 337 340 341 340 340 340 342 346 350 351 350 350 352 354 348 347 345 345 346 346
22 12 7 4 2 0 359 355 352 350 348 346 344 343 342 341 343 344 343 342 341 340 340 339 342 344 344 345 344 344 349 353 352 348 352 355 353 347 345 344 344 345 346
1 357 354 352 353 353 351 350 349 347 345 344 343 342 343 345 346 345 344 343 342 343 344 344 345 347 349 348 346 345 351 352 352 353 354 353 349 347 347 345 345 345 347
334 334 339 346 347 346 346 347 346 343 343 343 342 343 344 345 346 346 346 346 347 351 355 356 354 350 347 348 349 354 354 351 353 358 355 350 349 351 351 350 348 348 349
313 327 337 340 342 343 343 342 341 341 342 342 342 343 344 345 346 348 349 351 357 5 8 1 354 353 353 352 353 355 352 348 354 355 349 352 353 355 354 354 353 351 352
312 325 332 334 337 338 339 339 339 340 342 341 342 343 343 345 347 349 351 355 6 13 9 6 1 357 353 354 358 354 2 6 2 347 349 349 351 355 356 356 356 353 354